User: anonymous   Login
Location: Unspecified
(0.0000°N, 0.0000°E)
Time: 18:04:26
(UTC+00:00)
Language:

Meteor 2-9 - Orbit

View from above orbital plane
View from above orbital plane
View from above satellite
View from above satellite

Ground track
Ground track

The orbit data is extracted from the following two-line orbital elements,

1 13718U 82116A   18109.91032226 +.00000040 +00000-0 +13717-4 0  9999
2 13718 081.2523 033.0253 0052814 193.2848 166.6940 14.15441061824715
Epoch (UTC): 19 April 2018 21:50:51
Eccentricity: 0.0052814
inclination: 81.2523°
perigee height: 802 km
apogee height: 879 km
right ascension of ascending node: 33.0253°
argument of perigee: 193.2848°
revolutions per day: 14.15441061
mean anomaly at epoch: 166.6940°
orbit number at epoch: 82471

The dashed part of the orbit path shows where the satellite is in the earth's shadow,  

DLR